Weather History for Salinas, CA

Change the Weather History Date:

Monday, January 2, 2012

  Actual Average Record
Temperature  
Mean Temperature 51 °F 51 °F  
Max Temperature 61 °F 61 °F 77 °F (2001)
Min Temperature 41 °F 41 °F 26 °F (1975)
Degree Days  
Heating Degree Days 14 14  
Month to date heating degree days 18 28  
Since 1 July heating degree days 1054 1081  
Cooling Degree Days 0 0  
Month to date cooling degree days 0 0  
Year to date cooling degree days 0 0  
Moisture  
Dew Point 46 °F    
Average Humidity 80    
Maximum Humidity 100    
Minimum Humidity 60    
Precipitation  
Precipitation 0.00 in 0.08 in 1.12 in (1940)
Month to date precipitation 0.00 0.16  
Year to date precipitation 0.00 0.16  
Since 1 July precipitation 3.31 4.27  
Sea Level Pressure  
Sea Level Pressure 30.27 in    
Wind  
Wind Speed 4 mph (NNE)    
Max Wind Speed 15 mph    
Max Gust Speed 30 mph    
Visibility 6 miles    
Events Fog    
T = Trace of Precipitation, MM = Missing Value Source: NWS Daily Summary

Daily Weather History Graph

Daily Weather History Graph

Search for Another Location

Airport:

Trip Planner

Search our weather history database for the weather conditions in past years. The results will help you decide how hot, cold, wet, or windy it might be!

Date:

Astronomy

Jan. 02, 2012 Rise Set
Actual Time 7:18 AM PST 5:01 PM PST
Civil Twilight 6:50 AM PST 5:30 PM PST
Nautical Twilight 6:17 AM PST 6:02 PM PST
Astronomical Twilight 5:46 AM PST 6:34 PM PST
Moon 12:17 PM PST (1/2) 1:21 AM PST (1/2)
Length of Visible Light 10h 40m
Length of Day
9h 42m
Waxing Gibbous, 65% of the Moon is Illuminated
Jan 2
Waxing Gibbous
Jan 8
Full
Jan 16
Last Quarter
Jan 22
New
Jan 30
First Quarter

Hourly Weather History & Observations

Time (PST) Temp. Windchill Dew Point Humidity Pressure Visibility Wind Dir Wind Speed Gust Speed Precip Events Conditions
12:03 AM 48.2 °F - 46.4 °F 93% 30.20 in 1.5 mi North 6.9 mph - N/A   Overcast
12:14 AM 48.2 °F - 46.4 °F 93% 30.19 in 0.5 mi NNE 4.6 mph - N/A Fog Fog
12:21 AM 48.2 °F - 46.4 °F 93% 30.20 in 0.2 mi NNE 3.5 mph - N/A Fog Fog
12:39 AM 48.2 °F - 46.4 °F 93% 30.20 in 0.8 mi Calm Calm - N/A   Overcast
12:46 AM 48.2 °F - 48.2 °F 100% 30.21 in 2.0 mi Calm Calm - N/A   Overcast
12:53 AM 48.9 °F - 48.0 °F 97% 30.23 in 4.0 mi Calm Calm - N/A   Overcast
1:53 AM 48.0 °F - 46.0 °F 93% 30.24 in 7.0 mi Calm Calm - N/A   Overcast
2:53 AM 46.9 °F - 45.0 °F 93% 30.22 in 4.0 mi East 4.6 mph - N/A   Overcast
3:36 AM 46.4 °F - 44.6 °F 93% 30.21 in 4.0 mi Calm Calm - N/A   Scattered Clouds
3:46 AM 46.4 °F - 44.6 °F 93% 30.21 in 4.0 mi Calm Calm - N/A   Mostly Cloudy
3:53 AM 46.9 °F - 45.0 °F 93% 30.24 in 5.0 mi Calm Calm - N/A   Mostly Cloudy
4:53 AM 48.0 °F - 45.0 °F 89% 30.28 in 6.0 mi NNE 3.5 mph - N/A   Overcast
5:38 AM 48.2 °F - 46.4 °F 93% 30.25 in 7.0 mi Calm Calm - N/A   Overcast
5:53 AM 48.9 °F - 46.9 °F 93% 30.28 in 8.0 mi Calm Calm - N/A   Overcast
6:06 AM 50.0 °F - 46.4 °F 87% 30.26 in 8.0 mi Calm Calm - N/A   Overcast
6:53 AM 51.8 °F - 46.4 °F 82% 30.25 in 6.0 mi NW 3.5 mph - N/A   Overcast
7:53 AM 51.8 °F - 48.2 °F 88% 30.30 in 5.0 mi NNE 3.5 mph - N/A   Overcast
8:25 AM 53.6 °F - 50.0 °F 88% 30.31 in 5.0 mi Calm Calm - N/A   Overcast
8:53 AM 53.1 °F - 48.9 °F 86% 30.36 in 5.0 mi South 5.8 mph - N/A   Overcast
9:19 AM 53.6 °F - 48.2 °F 82% 30.31 in 5.0 mi SE 3.5 mph - N/A   Scattered Clouds
9:53 AM 54.0 °F - 48.9 °F 83% 30.33 in 6.0 mi SSE 9.2 mph - N/A   Haze
11:53 AM 55.4 °F - 48.2 °F 77% 30.26 in 8.0 mi East 4.6 mph - N/A   Clear
12:53 PM 57.9 °F - 48.0 °F 70% 30.27 in 9.0 mi Variable 5.8 mph - N/A   Clear
1:53 PM 60.1 °F - 46.9 °F 62% 30.25 in 9.0 mi Calm Calm - N/A   Clear
2:53 PM 60.1 °F - 46.9 °F 62% 30.24 in 8.0 mi WNW 5.8 mph - N/A   Clear
3:53 PM 57.9 °F - 48.0 °F 70% 30.26 in 9.0 mi West 5.8 mph - N/A   Clear
4:53 PM 55.9 °F - 46.9 °F 72% 30.26 in 10.0 mi West 6.9 mph - N/A   Clear
5:53 PM 53.1 °F - 46.9 °F 80% 30.27 in 8.0 mi Calm Calm - N/A   Clear
6:53 PM 50.0 °F - 45.0 °F 83% 30.28 in 8.0 mi North 3.5 mph - N/A   Clear
7:53 PM 51.1 °F - 46.9 °F 86% 30.29 in 7.0 mi Calm Calm - N/A   Clear
8:53 PM 48.0 °F - 44.1 °F 86% 30.30 in 7.0 mi WNW 6.9 mph - N/A   Clear
9:53 PM 46.0 °F - 43.0 °F 89% 30.34 in 5.0 mi Calm Calm - N/A   Partly Cloudy
10:05 PM 44.6 °F 43.1 °F 42.8 °F 93% 30.31 in 6.0 mi South 3.5 mph - N/A   Mostly Cloudy
10:33 PM 41.0 °F 36.4 °F 39.2 °F 93% 30.30 in 5.0 mi ENE 6.9 mph - N/A   Scattered Clouds
10:53 PM 44.1 °F 39.5 °F 41.0 °F 89% 30.32 in 4.0 mi ENE 8.1 mph - N/A   Clear
11:53 PM 44.1 °F - 42.1 °F 93% 30.33 in 7.0 mi Calm Calm - N/A   Clear